Regional Weather Roundup
Issued by NWS State College, PA

Home | Current Version | Previous Version | Text Only | Print | Product List | Glossary On
Versions: 1 2 3 4 5 6 7 8 9 10 11 12 13 14 15 16 17 18 19 20 21 22 23 24 25 26 27 28 29 30 31 32 33 34 35 36 37 38 39 40 41 42 43 44 45 46 47 48 49 50
000
ASUS41 KCTP 200310
RWRCTP

REGIONAL WEATHER ROUNDUP
NATIONAL WEATHER SERVICE STATE COLLEGE PA
1000 PM EST THU JAN 19 2017

Note: "fair" indicates few or no clouds below 12,000 feet with no
significant weather and/or obstructions to visibility.

* = STATION THAT DOES NOT REPORT PRECIPITATION /E.G. RAIN...SNOW...ETC/
    THUNDER OR FOG.

PAZ002>004-007>009-013>016-020>023-029>032-200400-
WESTERN PENNSYLVANIA

CITY           SKY/WX    TMP DP  RH WIND       PRES   REMARKS
ERIE           CLEAR     32  31  96 CALM      29.98S FOG
MEADVILLE      CLOUDY    34  30  85 CALM      29.94F
FRANKLIN*        N/A     34  28  80 E6        29.95F
NEW CASTLE     FAIR      32  31  96 SE3       29.95F
BEAVER COUNTY  NOT AVBL
BUTLER*        CLOUDY    28  27  93 NE5       29.95F
PITTSBURGH INT CLOUDY    34  33  96 CALM      29.93F
PITTSBURGH     CLOUDY    35  30  82 E5        29.93S
INDIANA*       CLEAR     30  30 100 E5        29.98S FOG
LATROBE        CLEAR     32  32 100 CALM      29.95F FOG
WASHINGTON CO* CLOUDY    28  27  93 CALM      29.93F
$$

PAZ004>006-010>012-017>019-024>028-033>037-041-042-045-046-049>053-200400-
CENTRAL PENNSYLVANIA

CITY           SKY/WX    TMP DP  RH WIND       PRES   REMARKS
BRADFORD       FOG       33  33 100 CALM      29.94F VSB 1/2
DUBOIS         CLOUDY    31  28  89 E3        29.95S FOG
CLEARFIELD     CLOUDY    30  29  96 N7        29.97S FOG
JOHNSTOWN      CLOUDY    36  33  89 S5        29.93S
ALTOONA        CLOUDY    33  31  92 CALM      29.98R
STATE COLLEGE  NOT AVBL
WILLIAMSPORT   CLOUDY    32  30  92 CALM      30.01R FOG
SELINSGROVE    CLOUDY    30  29  96 N6        30.02S
FT INDIANTOWN  CLOUDY    33  33 100 CALM      30.03R
CAPITAL CITY   PTCLDY    35  30  82 CALM      30.02S
HARRISBURG     PTCLDY    34  32  92 CALM      30.02S
YORK           CLOUDY    30  30 100 CALM      30.02S
$$

PAZ038>040-043-044-047-048-054-055-060>062-067>071-200400-
EASTERN PENNSYLVANIA

CITY           SKY/WX    TMP DP  RH WIND       PRES   REMARKS
SCRANTON       CLOUDY    38  32  79 E6        29.98F
MOUNT POCONO   CLOUDY    33  29  85 N7        29.95F
ALLENTOWN      CLOUDY    36  30  79 E5        30.02S
QUAKERTOWN*    PTCLDY    30  28  93 CALM      30.02R
READING        CLEAR     33  31  92 SW5       30.02R
LANCASTER      CLOUDY    34  33  96 CALM      30.03S
COATESVILLE      N/A    N/A N/A N/A MISG        N/A
POTTSTOWN      CLOUDY    31  29  92 CALM      30.05R
BLUE BELL      CLOUDY    32  32 100 CALM      30.03R
DOYLESTOWN     PTCLDY    35  31  85 CALM      30.02R
WILLOW GROVE   NOT AVBL
NORTH PHILA    CLOUDY    35  32  88 CALM      30.05R
PHILADELPHIA   CLOUDY    38  32  79 S3        30.06R
$$



USA.gov is the U.S. government's official web portal to all federal, state and local government web resources and services.